CZ-6A DEB

Satellite information

Favourite Embed

Satellite Type and Status

DEBRISIN ORBIT

Key statistics

Satellite CZ-6A DEB at a glance.

Uptime

440

Days in orbit

Revolutions

≈ 14.6

Per day

Orbit

LEO

Low Earth Orbit

Inclination

89.1

Latest

Satellite identification and parameters

Extended collection of information and parameters for CZ-6A DEB.

Object identification

Identified? True

Debris? True

Object name: CZ-6A DEB

International designator: 2024-140PW

Object number (NORAD): 61128

Object ID (CCSDS): 61128

Country: PEOPLES REPUBLIC OF CHINA (PRC)

Current information (Y/N): Y

RCS size: SMALL

Orbital parameters

Period: 98.596 minutes

Inclination: 89.1472 deg

SMA: 7069.675 km

Apoapsis: 780.525 km

Periapsis: 602.554 km

RAAN: 306.8572 deg

Eccentricy: 0.01258694

Argument of periapsis: 1.4605 deg

Mean anomaly: 358.6949 deg

Mean motion: 14.60506895 rev/day

Mean motion (dot): 0.00008264 rev/day2

B* drag term: 0.0015195804 1/REarth

Two-line elements (TLE)

Creation date: Oct. 20, 2025, 2:10 a.m.

Reference frame: TEME

Reference center: EARTH

Epoch: Oct. 19, 2025, 11:26 a.m. UTC

TLE line 0: 0 CZ-6A DEB

TLE line 1: 1 61128U 24140PW 25292.47666278 .00008264 00000-0 15196-2 0 9999

TLE line 2: 2 61128 89.1472 306.8572 0125869 1.4605 358.6949 14.60506895 61778

Live tracking on map

Real-time ground track for satellite CZ-6A DEB.

In-orbit conjunctions

A list of the most updated potential collisions computed for object CZ-6A DEB.

Target Orbit TCA Probability of collision Miss distance Type
CZ-4 DEB SSO 2025-02-26 07:45:26 0.0004429736 102.0 (m) DEBRIS
CZ-6A DEB LEO 2025-01-31 10:55:24 0.0001363722 995.0 (m) DEBRIS
METEOR 2-7 DEB LEO 2025-01-27 14:30:33 0.0001235699 546.0 (m) DEBRIS
COSMOS 2251 DEB LEO 2024-12-02 13:05:51 0.0001040658 726.0 (m) DEBRIS
CZ-6A DEB LEO 2024-10-21 04:21:50 0.004335303 188.0 (m) DEBRIS

Associated space launch

18 Low Earth Orbit communication satellites with Ku, Q and V band payloads for the G60 constellation operated by Shanghai Spacecom Satellite Technology (SSST) with funding backed by the Shanghai local government. Initial constellation will consist of 1296 satellites by 2027 with long term plans to expand it to 12000 satellites.

CZ-6A DEB was lifted into orbit during the mission ‘Long March 6A | G60 Polar Group 01’, on board a Long March 6A space rocket.

The launch took place on Aug. 6, 2024, 6:42 a.m. from Launch Complex 9A.

For more information about the launch, click the button.

Launch to space Long March 6A | G60 Polar Group 01
Long March 6A | G60 Polar Group 01

Agency: N/A

Status: Launch Successful

Launch date: Aug. 6, 2024, 6:42 a.m. UTC

Rocket: Long March 6A

Launch pad: Launch Complex 9A

Location: Taiyuan Satellite Launch Center, People's Republic of China

...

Latest news about this satellite

News about space launch
Brightness of first Chinese broadband constellation satellites alarms astronomers

The first satellites of a Chinese broadband constellation are significantly brighter than those of Western systems, posing a new challenge for astronomers.

News about space launch
Chinese rocket stage breaks up into cloud of more than 700 pieces of space debris

HELSINKI — A Chinese Long March 6A rocket’s upper stage has fragmented into a cloud of over 700 pieces of space debris, adding to concerns about long-term orbital safety. China […]

News about space launch
China's Thousand Sails Megaconstellation Kicks Off with Dangerous Debris Field

China's Thousand Sails Megaconstellation Kicks Off with Dangerous Debris Field


Newsletter sign-up

Weekly statistics, charts and insights to help you stay on top of the space industry.